Weather History for Anniston, AL

Change the Weather History Date:

Friday, February 15, 2013

  Actual Average Record
Temperature  
Mean Temperature 47 °F 47 °F  
Max Temperature 63 °F 58 °F 79 °F (1979)
Min Temperature 31 °F 36 °F 8 °F (1905)
Degree Days  
Heating Degree Days 18    
Month to date heating degree days 273  
Since 1 July heating degree days 1807  
Moisture  
Dew Point 33 °F    
Average Humidity 67    
Maximum Humidity 100    
Minimum Humidity 34    
Precipitation  
Precipitation 0.00 in 0.19 in 2.49 in (1990)
Month to date precipitation 2.97 2.66  
Year to date precipitation 10.95 7.18  
Sea Level Pressure  
Sea Level Pressure 30.11 in    
Wind  
Wind Speed 5 mph (WNW)    
Max Wind Speed 17 mph    
Max Gust Speed 22 mph    
Visibility 8 miles    
Events Snow    
T = Trace of Precipitation, MM = Missing Value Source: NWS Daily Summary

Daily Weather History Graph

Daily Weather History Graph

Search for Another Location

Airport:

Trip Planner

Search our weather history database for the weather conditions in past years. The results will help you decide how hot, cold, wet, or windy it might be!

Date:

Astronomy

Feb. 15, 2013 Rise Set
Actual Time 6:27 AM CST 5:28 PM CST
Civil Twilight 6:01 AM CST 5:53 PM CST
Nautical Twilight 5:32 AM CST 6:22 PM CST
Astronomical Twilight 5:03 AM CST 6:51 PM CST
Moon 9:22 AM CST (2/15) 11:07 PM CST (2/15)
Length of Visible Light 11h 51m
Length of Day
11h 00m
Waxing Crescent, 30% of the Moon is Illuminated
Feb 15
Waxing Crescent
Feb 17
First Quarter
Feb 25
Full
Mar 4
Last Quarter
Mar 11
New

Hourly Weather History & Observations

Time (CST) Temp. Dew Point Humidity Pressure Visibility Wind Dir Wind Speed Gust Speed Precip Events Conditions
12:53 AM 35.1 °F 34.0 °F 96% 30.12 in 8.0 mi Calm Calm - N/A   Clear
1:53 AM 34.0 °F 33.1 °F 96% 30.12 in 5.0 mi Calm Calm - N/A   Clear
2:53 AM 34.0 °F 32.0 °F 92% 30.11 in 7.0 mi Calm Calm - 0.00 in Snow Light Snow
4:53 AM 32.0 °F 30.0 °F 92% 30.14 in 7.0 mi Calm Calm - N/A   Clear
5:53 AM 32.0 °F 30.0 °F 92% 30.16 in 5.0 mi Calm Calm - N/A   Scattered Clouds
6:34 AM 30.2 °F 30.2 °F 100% 30.13 in 1.8 mi Calm Calm - N/A   Clear
6:38 AM 32.0 °F 30.2 °F 93% 30.14 in 1.0 mi Calm Calm - N/A   Mist
6:46 AM 32.0 °F 30.2 °F 93% 30.14 in 2.5 mi Calm Calm - N/A   Partly Cloudy
6:53 AM 32.0 °F 30.9 °F 96% 30.17 in 6.0 mi Calm Calm - N/A   Clear
7:53 AM 37.0 °F 34.0 °F 89% 30.17 in 9.0 mi Calm Calm - N/A   Clear
8:53 AM 46.0 °F 39.9 °F 79% 30.17 in 10.0 mi Calm Calm - N/A   Clear
9:53 AM 53.1 °F 37.9 °F 57% 30.16 in 10.0 mi WSW 9.2 mph - N/A   Clear
10:53 AM 57.0 °F 36.0 °F 45% 30.14 in 10.0 mi SW 9.2 mph - N/A   Clear
11:53 AM 60.1 °F 35.1 °F 39% 30.11 in 10.0 mi West 11.5 mph 16.1 mph N/A   Clear
12:53 PM 60.1 °F 32.0 °F 35% 30.08 in 10.0 mi WSW 8.1 mph - N/A   Clear
1:53 PM 61.0 °F 33.1 °F 35% 30.05 in 10.0 mi SW 12.7 mph - N/A   Scattered Clouds
2:53 PM 62.1 °F 34.0 °F 35% 30.04 in 10.0 mi SW 15.0 mph 21.9 mph N/A   Mostly Cloudy
3:53 PM 59.0 °F 34.0 °F 39% 30.04 in 10.0 mi West 9.2 mph - N/A   Mostly Cloudy
4:53 PM 57.9 °F 33.1 °F 39% 30.04 in 10.0 mi WNW 6.9 mph - N/A   Overcast
6:53 PM 51.1 °F 35.1 °F 54% 30.07 in 10.0 mi North 12.7 mph 20.7 mph N/A   Mostly Cloudy
7:53 PM 50.0 °F 34.0 °F 54% 30.09 in 10.0 mi Calm Calm - N/A   Overcast
8:53 PM 48.9 °F 33.1 °F 54% 30.10 in 10.0 mi Variable 4.6 mph - N/A   Overcast
9:53 PM 48.0 °F 34.0 °F 58% 30.09 in 10.0 mi NNE 3.5 mph - N/A   Overcast
10:53 PM 46.9 °F 34.0 °F 61% 30.08 in 10.0 mi North 3.5 mph - N/A   Overcast
11:53 PM 46.9 °F 33.1 °F 59% 30.07 in 10.0 mi North 4.6 mph - N/A   Mostly Cloudy